Tracking 19226 objects as of 23-Jul-2018
HD Live streaming from Space Station
objects crossing your sky now

FENGYUN 1C DEB

Track FENGYUN 1C DEB now!
10-day predictions


NORAD ID: 30625
Int'l Code: 1999-025ANG
Perigee: 815.6 km
Apogee: 939.6 km
Inclination: 98.9 °
Period: 102.4 minutes
Semi major axis: 7248 km
RCS: 0.017 m2 (small)
Launch date: May 10, 1999
Source: People's Republic of China (PRC)
Launch site: Taiyaun Space Center, China (TSC)

Note: This is SATELLITE DEBRIS
aabbcc
Your satellite tracking list
Your tracking list is empty




NASA's NSSDC Master Catalog

Two Line Element Set (TLE):
1 30625U 99025ANG 18203.24894356  .00000883  00000-0  53890-3 0  9993
2 30625  98.9208 121.7691 0085553  48.3595 312.4860 14.06772826585017
Source of the keplerian elements: AFSPC